THORAD AGENA D DEB

Satellite information

Favourite Embed

Satellite Type and Status

DEBRISIN ORBIT

Key statistics

Satellite THORAD AGENA D DEB at a glance.

Uptime

20365

Days in orbit

Revolutions

≈ 14.2

Per day

Orbit

LEO

Low Earth Orbit

Inclination

70.0

Latest

Satellite identification and parameters

Extended collection of information and parameters for THORAD AGENA D DEB.

Object identification

Identified? True

Debris? True

Object name: THORAD AGENA D DEB

International designator: 1969-082DP

Object number (NORAD): 4135

Object ID (CCSDS): 4135

Country: UNITED STATES OF AMERICA (US)

Current information (Y/N): Y

RCS size: MEDIUM

Orbital parameters

Period: 101.131 minutes

Inclination: 69.9796 deg

SMA: 7190.338 km

Apoapsis: 845.748 km

Periapsis: 778.657 km

RAAN: 233.4866 deg

Eccentricy: 0.0046654

Argument of periapsis: 7.3752 deg

Mean anomaly: 352.8043 deg

Mean motion: 14.23897893 rev/day

Mean motion (dot): 0.00000183 rev/day2

B* drag term: 0.00010345 1/REarth

Two-line elements (TLE)

Creation date: July 2, 2025, 2:08 a.m.

Reference frame: TEME

Reference center: EARTH

Epoch: July 1, 2025, 8:57 p.m. UTC

TLE line 0: 0 THORAD AGENA D DEB

TLE line 1: 1 04135U 69082DP 25182.87310911 .00000183 00000-0 10345-3 0 9994

TLE line 2: 2 04135 69.9796 233.4866 0046654 7.3752 352.8043 14.23897893881569

Live tracking on map

Real-time ground track for satellite THORAD AGENA D DEB.

In-orbit conjunctions

A list of the most updated potential collisions computed for object THORAD AGENA D DEB.

Target Orbit TCA Probability of collision Miss distance Type
FENGYUN 1C DEB SSO 2024-11-12 07:22:35 0.0008148679 330.0 (m) DEBRIS
FENGYUN 1C DEB SSO 2024-09-25 03:10:05 0.000532529 73.0 (m) DEBRIS
CZ-4 DEB SSO 2024-08-02 03:52:22 0.0001362263 100.0 (m) DEBRIS

Associated space launch

Poppy was the follow-on ELINT system, which succeeded the Grab ELINT satellite system.

THORAD AGENA D DEB was lifted into orbit during the mission ‘Thorad SLV-2G Agena D | Poppy 8A,B,C,D’, on board a Thorad SLV-2G Agena D space rocket.

The launch took place on Sept. 30, 1969, 1:40 p.m. from Space Launch Complex 1W.

For more information about the launch, click the button.

Launch to space Thorad SLV-2G Agena D | Poppy 8A,B,C,D
Thorad SLV-2G Agena D | Poppy 8A,B,C,D

Agency: N/A

Status: Launch Successful

Launch date: Sept. 30, 1969, 1:40 p.m. UTC

Rocket: Thorad SLV-2G Agena D

Launch pad: Space Launch Complex 1W

Location: Vandenberg SFB, CA, USA

...

Latest news about this satellite

There are no fresh news available about this satellite. Check back as we update our databases every day.


Newsletter sign-up

Weekly statistics, charts and insights to help you stay on top of the space industry.